FW6664 Weather Reports


Display with metric or nautical units.
time (UTC)temp
F
wind
direction
speed
MPH
gust
MPH
rain 1hr
in
rain 24hr
in
rain mn
in
humidity
%
barometer
mb
20260510052504 57 233 0.0 3.0 0.00 0.00 0.00 33 1017.0
20260510052329 58 233 1.0 0.0 0.00 0.00 0.00 33 1017.0
20260510052055 57 233 2.0 3.0 0.00 0.00 0.00 33 1017.0
20260510051903 58 233 3.0 0.0 0.00 0.00 0.00 33 1017.0
20260510051529 57 233 0.0 2.0 0.00 0.00 0.00 33 1017.0
20260510051344 58 233 1.0 0.0 0.00 0.00 0.00 33 1017.0
20260510051021 57 233 0.0 2.0 0.00 0.00 0.00 33 1017.0
20260510050837 57 233 3.0 0.0 0.00 0.00 0.00 33 1017.0
20260510050512 57 233 1.0 2.0 0.00 0.00 0.00 33 1017.0
20260510050352 57 233 3.0 0.0 0.00 0.00 0.00 33 1017.0
20260510050042 57 233 2.0 2.0 0.00 0.00 0.00 33 1017.0
20260510045827 57 233 2.0 0.0 0.00 0.00 0.00 33 1017.0
20260510045537 57 233 1.0 3.0 0.00 0.00 0.00 33 1017.0
20260510045324 57 233 2.0 0.0 0.00 0.00 0.00 33 1017.0
20260510045033 57 233 1.0 3.0 0.00 0.00 0.00 33 1017.0
20260510044843 57 233 3.0 0.0 0.00 0.00 0.00 33 1017.0
20260510044526 57 233 1.0 3.0 0.00 0.00 0.00 33 1017.0
20260510044338 57 233 2.0 0.0 0.00 0.00 0.00 33 1017.0
20260510044018 57 233 1.0 3.0 0.00 0.00 0.00 33 1017.0
20260510043833 57 233 0.0 0.0 0.00 0.00 0.00 33 1017.0
20260510043513 57 233 2.0 3.0 0.00 0.00 0.00 33 1017.0
20260510043349 57 233 3.0 0.0 0.00 0.00 0.00 33 1017.0
20260510043050 57 233 2.0 3.0 0.00 0.00 0.00 33 1017.0
20260510042842 57 233 3.0 0.0 0.00 0.00 0.00 33 1017.0
20260510042535 57 233 1.0 3.0 0.00 0.00 0.00 33 1017.0
20260510042401 58 233 1.0 0.0 0.00 0.00 0.00 33 1017.0
20260510042012 57 233 0.0 4.0 0.00 0.00 0.00 33 1017.0
20260510041837 58 233 1.0 0.0 0.00 0.00 0.00 33 1017.0
20260510041558 57 233 2.0 4.0 0.00 0.00 0.00 33 1017.0
20260510041501 57 233 2.0 4.0 0.00 0.00 0.00 33 1017.0
20260510041351 58 233 4.0 0.0 0.00 0.00 0.00 33 1017.0
20260510041031 57 233 2.0 4.0 0.00 0.00 0.00 33 1017.0
20260510040825 58 233 2.0 0.0 0.00 0.00 0.00 33 1017.0
20260510040525 57 233 1.0 3.0 0.00 0.00 0.00 33 1017.0
20260510040343 58 233 0.0 0.0 0.00 0.00 0.00 33 1017.0
20260510040033 58 233 2.0 2.0 0.00 0.00 0.00 33 1017.0
20260510035839 58 233 2.0 0.0 0.00 0.00 0.00 33 1017.0
20260510035511 58 233 0.0 2.0 0.00 0.00 0.00 33 1017.0
20260510035333 58 233 3.0 0.0 0.00 0.00 0.00 33 1017.0
20260510035040 58 233 1.0 2.0 0.00 0.00 0.00 33 1017.0
20260510034829 58 233 2.0 0.0 0.00 0.00 0.00 33 1017.0
20260510034534 58 233 0.0 3.0 0.00 0.00 0.00 33 1017.0
20260510034346 59 233 3.0 0.0 0.00 0.00 0.00 33 1017.0
20260510034008 58 233 2.0 3.0 0.00 0.00 0.00 33 1017.0
20260510033842 59 233 3.0 0.0 0.00 0.00 0.00 33 1017.0
20260510033559 58 233 2.0 3.0 0.00 0.00 0.00 33 1017.0
20260510033336 59 233 1.0 0.0 0.00 0.00 0.00 33 1017.0
20260510033058 58 233 0.0 3.0 0.00 0.00 0.00 33 1017.0
20260510032828 59 233 3.0 0.0 0.00 0.00 0.00 33 1017.0
20260510032517 58 233 1.0 3.0 0.00 0.00 0.00 33 1017.0
20260510032402 59 233 1.0 0.0 0.00 0.00 0.00 33 1017.0
20260510032046 59 233 2.0 3.0 0.00 0.00 0.00 33 1017.0
20260510031838 59 233 2.0 0.0 0.00 0.00 0.00 33 1017.0
20260510031546 59 233 3.0 3.0 0.00 0.00 0.00 33 1017.0
20260510031332 59 233 1.0 0.0 0.00 0.00 0.00 33 1017.0
20260510031011 59 233 1.0 2.0 0.00 0.00 0.00 33 1017.0
20260510030827 60 233 1.0 0.0 0.00 0.00 0.00 33 1017.0
20260510030505 59 233 1.0 2.0 0.00 0.00 0.00 33 1017.0
20260510030325 60 233 2.0 0.0 0.00 0.00 0.00 33 1017.0
20260510025824 60 233 3.0 0.0 0.00 0.00 0.00 33 1017.0
20260510025552 60 233 1.0 2.0 0.00 0.00 0.00 33 1017.0
20260510025323 60 233 1.0 0.0 0.00 0.00 0.00 33 1017.0
20260510025049 60 233 0.0 2.0 0.00 0.00 0.00 33 1017.0
20260510024841 60 233 0.0 0.0 0.00 0.00 0.00 33 1017.0
20260510024547 60 233 1.0 3.0 0.00 0.00 0.00 33 1017.0
20260510024400 61 233 1.0 0.0 0.00 0.00 0.00 33 1017.0
20260510024024 60 233 2.0 3.0 0.00 0.00 0.00 33 1017.0
20260510023856 61 231 1.0 0.0 0.00 0.00 0.00 33 1017.0
20260510023547 61 231 0.0 3.0 0.00 0.00 0.00 33 1017.0
20260510023354 61 231 3.0 0.0 0.00 0.00 0.00 33 1017.0
20260510023020 61 231 3.0 4.0 0.00 0.00 0.00 33 1017.0
20260510022828 62 231 2.0 0.0 0.00 0.00 0.00 33 1017.0
20260510022551 62 231 2.0 4.0 0.00 0.00 0.00 33 1017.0
20260510022324 62 231 1.0 0.0 0.00 0.00 0.00 33 1017.0
20260510022045 62 231 1.0 4.0 0.00 0.00 0.00 33 1017.0
20260510021841 63 231 2.0 0.0 0.00 0.00 0.00 33 1017.0
20260510021531 63 236 3.0 4.0 0.00 0.00 0.00 33 1017.0
20260510021336 63 282 4.0 0.0 0.00 0.00 0.00 33 1017.0
20260510021011 63 261 2.0 3.0 0.00 0.00 0.00 33 1017.0
20260510020830 64 261 4.0 0.0 0.00 0.00 0.00 33 1017.0
20260510020537 63 261 2.0 4.0 0.00 0.00 0.00 33 1017.0
20260510020325 64 227 6.0 0.0 0.00 0.00 0.00 33 1017.0
20260510020032 63 247 1.0 4.0 0.00 0.00 0.00 33 1017.0
20260510015841 64 240 2.0 0.0 0.00 0.00 0.00 33 1017.0
20260510015524 64 231 2.0 4.0 0.00 0.00 0.00 33 1017.0
20260510015336 64 142 4.0 0.0 0.00 0.00 0.00 33 1017.0
20260510015016 64 219 2.0 6.0 0.00 0.00 0.00 33 1017.0
20260510014829 65 285 2.0 0.0 0.00 0.00 0.00 33 1017.0
20260510014508 64 297 4.0 6.0 0.00 0.00 0.00 33 1017.0
20260510014325 65 274 3.0 0.0 0.00 0.00 0.00 33 1017.0
20260510014101 64 232 5.0 6.0 0.00 0.00 0.00 33 1017.0
20260510014003 64 232 4.0 6.0 0.00 0.00 0.00 33 1017.0
20260510013842 65 281 6.0 0.0 0.00 0.00 0.00 33 1017.0
20260510013556 65 255 4.0 6.0 0.00 0.00 0.00 33 1017.0
20260510013402 65 222 6.0 0.0 0.00 0.00 0.00 33 1017.0
20260510013027 65 244 3.0 5.0 0.00 0.00 0.00 33 1017.0
20260510012835 66 282 7.0 0.0 0.00 0.00 0.00 33 1017.0
20260510012524 66 236 3.0 6.0 0.00 0.00 0.00 33 1017.0
20260510012331 67 303 4.0 0.0 0.00 0.00 0.00 33 1017.0
20260510012052 66 229 3.0 6.0 0.00 0.00 0.00 33 1017.0
20260510011825 67 277 3.0 0.0 0.00 0.00 0.00 33 1017.0
20260510011530 67 227 3.0 6.0 0.00 0.00 0.00 33 1017.0
20260510011402 67 294 4.0 0.0 0.00 0.00 0.00 33 1017.0
20260510011052 67 249 4.0 6.0 0.00 0.00 0.00 33 1017.0
20260510010836 68 227 4.0 0.0 0.00 0.00 0.00 33 1017.0
20260510010542 67 272 4.0 7.0 0.00 0.00 0.00 33 1017.0
20260510010329 68 291 6.0 0.0 0.00 0.00 0.00 33 1017.0
20260510010037 67 272 4.0 7.0 0.00 0.00 0.00 33 1017.0
20260510005826 68 221 5.0 0.0 0.00 0.00 0.00 33 1017.0
20260510005510 68 243 2.0 6.0 0.00 0.00 0.00 33 1017.0
20260510005401 69 267 4.0 0.0 0.00 0.00 0.00 33 1017.0
20260510005038 69 234 4.0 6.0 0.00 0.00 0.00 33 1017.0
20260510004837 70 252 6.0 0.0 0.00 0.00 0.00 33 1017.0
20260510004512 69 230 2.0 6.0 0.00 0.00 0.00 33 1017.0
20260510004332 70 295 4.0 0.0 0.00 0.00 0.00 33 1017.0
20260510004100 70 263 5.0 8.0 0.00 0.00 0.00 33 1017.0
20260510004003 70 285 4.0 8.0 0.00 0.00 0.00 33 1017.0
20260510003828 71 233 6.0 0.0 0.00 0.00 0.00 33 1017.0
20260510003556 70 289 5.0 8.0 0.00 0.00 0.00 33 1017.0
20260510003405 70 253 3.0 0.0 0.00 0.00 0.00 33 1017.0
20260510003026 69 266 2.0 5.0 0.00 0.00 0.00 33 1017.0
20260510002839 70 228 3.0 0.0 0.00 0.00 0.00 33 1017.0
20260510002519 69 196 3.0 5.0 0.00 0.00 0.00 33 1017.0
20260510002334 70 219 5.0 0.0 0.00 0.00 0.00 33 1017.0
20260510002015 69 253 2.0 6.0 0.00 0.00 0.00 33 1017.0
20260510001852 70 226 4.0 0.0 0.00 0.00 0.00 33 1017.0
20260510001547 70 224 4.0 6.0 0.00 0.00 0.00 33 1017.0
20260510001328 71 142 5.0 0.0 0.00 0.00 0.00 33 1017.0
20260510001039 71 245 2.0 6.0 0.00 0.00 0.00 33 1017.0
20260510000844 71 248 2.0 0.0 0.00 0.00 0.00 33 1017.0
20260510000531 70 258 4.0 6.0 0.00 0.00 0.00 33 1017.0
20260510000341 71 190 3.0 0.0 0.00 0.00 0.00 33 1017.0
20260510000034 70 228 2.0 6.0 0.00 0.00 0.00 33 1017.0
20260509235836 70 259 2.0 0.0 0.00 0.00 0.00 33 1017.0
20260509235602 70 209 5.0 6.0 0.00 0.00 0.00 33 1017.0
20260509235335 71 250 4.0 0.0 0.00 0.00 0.00 33 1017.0
20260509235049 70 168 3.0 5.0 0.00 0.00 0.00 33 1017.0
20260509234832 71 231 4.0 0.0 0.00 0.00 0.00 33 1017.0
20260509234546 70 207 3.0 5.0 0.00 0.00 0.00 33 1017.0
20260509234328 71 198 2.0 0.0 0.00 0.00 0.00 33 1017.0
20260509234023 71 218 4.0 5.0 0.00 0.00 0.00 33 1017.0
20260509233904 72 208 7.0 0.0 0.00 0.00 0.00 33 1017.0
20260509233548 71 162 4.0 6.0 0.00 0.00 0.00 33 1017.0
20260509233342 72 242 3.0 0.0 0.00 0.00 0.00 33 1017.0
20260509233022 71 207 2.0 6.0 0.00 0.00 0.00 33 1017.0
20260509232838 71 206 5.0 0.0 0.00 0.00 0.00 33 1017.0
20260509232517 71 233 3.0 6.0 0.00 0.00 0.00 33 1017.0
20260509232334 71 196 2.0 0.0 0.00 0.00 0.00 33 1017.0
20260509232046 71 256 4.0 6.0 0.00 0.00 0.00 33 1017.0
20260509231831 71 195 1.0 0.0 0.00 0.00 0.00 33 1017.0
20260509231543 70 210 2.0 4.0 0.00 0.00 0.00 33 1017.0
20260509231347 70 216 5.0 0.0 0.00 0.00 0.00 33 1017.0
20260509231016 70 167 3.0 6.0 0.00 0.00 0.00 33 1017.0
20260509230841 70 183 7.0 0.0 0.00 0.00 0.00 33 1017.0
20260509230505 71 139 3.0 6.0 0.00 0.00 0.00 33 1017.0
20260509230338 72 180 4.0 0.0 0.00 0.00 0.00 33 1017.0
20260509230057 71 265 2.0 6.0 0.00 0.00 0.00 33 1017.0
20260509225833 71 184 4.0 0.0 0.00 0.00 0.00 33 1017.0
20260509225549 70 261 4.0 9.0 0.00 0.00 0.00 33 1017.0
20260509225350 70 199 5.0 0.0 0.00 0.00 0.00 33 1017.0
20260509225024 71 219 6.0 9.0 0.00 0.00 0.00 33 1017.0
20260509224827 72 235 3.0 0.0 0.00 0.00 0.00 33 1017.0
20260509224518 71 305 2.0 8.0 0.00 0.00 0.00 33 1017.0
20260509224324 72 244 5.0 0.0 0.00 0.00 0.00 33 1017.0
20260509224012 71 211 3.0 7.0 0.00 0.00 0.00 33 1017.0
20260509223900 72 187 3.0 0.0 0.00 0.00 0.00 33 1017.0
20260509223539 72 193 2.0 6.0 0.00 0.00 0.00 33 1017.0
20260509223354 72 262 4.0 0.0 0.00 0.00 0.00 33 1017.0
20260509223013 71 292 2.0 6.0 0.00 0.00 0.00 33 1017.0
20260509222829 72 223 4.0 0.0 0.00 0.00 0.00 33 1017.0
20260509222505 70 257 4.0 7.0 0.00 0.00 0.00 33 1017.0
20260509222325 71 272 3.0 0.0 0.00 0.00 0.00 33 1017.0
20260509222056 71 214 4.0 7.0 0.00 0.00 0.00 33 1017.0
20260509221841 71 304 2.0 0.0 0.00 0.00 0.00 33 1017.0
20260509221553 70 277 4.0 8.0 0.00 0.00 0.00 33 1017.0
20260509221400 70 229 12.0 0.0 0.00 0.00 0.00 33 1017.0
20260509221022 69 237 5.0 8.0 0.00 0.00 0.00 33 1017.0
20260509220853 70 218 7.0 0.0 0.00 0.00 0.00 33 1017.0
20260509220552 70 196 4.0 9.0 0.00 0.00 0.00 33 1017.0
20260509220328 70 196 3.0 0.0 0.00 0.00 0.00 33 1017.0
20260509220027 70 144 6.0 9.0 0.00 0.00 0.00 33 1017.0
20260509215826 71 269 5.0 0.0 0.00 0.00 0.00 33 1017.0
20260509215556 70 237 3.0 9.0 0.00 0.00 0.00 33 1017.0
20260509215340 71 169 6.0 0.0 0.00 0.00 0.00 33 1017.0
20260509215046 71 261 3.0 9.0 0.00 0.00 0.00 33 1017.0
20260509214833 72 200 4.0 0.0 0.00 0.00 0.00 33 1017.0
20260509214554 71 294 2.0 7.0 0.00 0.00 0.00 33 1017.0
20260509214329 71 147 2.0 0.0 0.00 0.00 0.00 33 1017.0
20260509214035 71 236 5.0 7.0 0.00 0.00 0.00 33 1017.0
20260509213825 71 284 9.0 0.0 0.00 0.00 0.00 33 1017.0
20260509213506 71 218 5.0 6.0 0.00 0.00 0.00 33 1017.0
20260509213401 72 213 6.0 0.0 0.00 0.00 0.00 33 1017.0
20260509213035 71 274 3.0 6.0 0.00 0.00 0.00 33 1017.0
20260509212831 71 241 4.0 0.0 0.00 0.00 0.00 33 1017.0
20260509212526 71 286 5.0 6.0 0.00 0.00 0.00 33 1017.0
20260509212328 71 215 10.0 0.0 0.00 0.00 0.00 33 1017.0
20260509212024 71 269 6.0 9.0 0.00 0.00 0.00 33 1017.0
20260509211826 72 247 3.0 0.0 0.00 0.00 0.00 33 1017.0
20260509211515 71 220 5.0 9.0 0.00 0.00 0.00 33 1017.0
20260509211340 72 260 8.0 0.0 0.00 0.00 0.00 33 1017.0
20260509211007 71 241 4.0 7.0 0.00 0.00 0.00 33 1017.0
20260509210837 72 266 4.0 0.0 0.00 0.00 0.00 33 1017.0
20260509210558 71 276 3.0 7.0 0.00 0.00 0.00 33 1017.0
20260509210330 72 243 8.0 0.0 0.00 0.00 0.00 33 1017.0
20260509210033 71 266 6.0 8.0 0.00 0.00 0.00 33 1017.0
20260509205827 72 223 7.0 0.0 0.00 0.00 0.00 33 1017.0
20260509205600 71 220 5.0 8.0 0.00 0.00 0.00 33 1017.0
20260509205502 71 212 4.0 8.0 0.00 0.00 0.00 33 1017.0
20260509205327 72 241 8.0 0.0 0.00 0.00 0.00 33 1017.0
20260509205053 72 285 6.0 8.0 0.00 0.00 0.00 33 1017.0
20260509204838 72 221 7.0 0.0 0.00 0.00 0.00 33 1017.0
20260509204523 71 252 3.0 12.0 0.00 0.00 0.00 33 1017.0
20260509204331 72 286 8.0 0.0 0.00 0.00 0.00 33 1017.0
20260509204054 71 248 7.0 12.0 0.00 0.00 0.00 33 1017.0
20260509203831 72 239 11.0 0.0 0.00 0.00 0.00 33 1017.0
20260509203549 71 268 4.0 7.0 0.00 0.00 0.00 33 1017.0
20260509203326 72 285 7.0 0.0 0.00 0.00 0.00 33 1017.0
20260509203022 71 260 4.0 9.0 0.00 0.00 0.00 33 1017.0
20260509202843 72 267 3.0 0.0 0.00 0.00 0.00 33 1017.0
20260509202513 71 264 6.0 9.0 0.00 0.00 0.00 33 1017.0
20260509202339 72 234 7.0 0.0 0.00 0.00 0.00 33 1017.0
20260509202007 72 285 3.0 7.0 0.00 0.00 0.00 33 1017.0
20260509201835 72 216 13.0 0.0 0.00 0.00 0.00 33 1017.0
20260509201559 72 295 4.0 8.0 0.00 0.00 0.00 33 1017.0
20260509201500 72 273 4.0 12.0 0.00 0.00 0.00 33 1017.0
20260509201331 72 248 6.0 0.0 0.00 0.00 0.00 33 1017.0
20260509201053 72 220 4.0 12.0 0.00 0.00 0.00 33 1017.0
20260509200830 72 251 3.0 0.0 0.00 0.00 0.00 33 1017.0
20260509200548 72 272 6.0 12.0 0.00 0.00 0.00 33 1017.0
20260509200327 73 236 5.0 0.0 0.00 0.00 0.00 33 1017.0
20260509200042 73 244 4.0 8.0 0.00 0.00 0.00 33 1017.0
20260509195843 73 282 8.0 0.0 0.00 0.00 0.00 33 1017.0
20260509195536 72 299 6.0 8.0 0.00 0.00 0.00 33 1017.0
20260509195337 73 264 5.0 0.0 0.00 0.00 0.00 33 1017.0
20260509195029 72 258 4.0 8.0 0.00 0.00 0.00 33 1017.0
20260509194834 73 195 7.0 0.0 0.00 0.00 0.00 33 1017.0
20260509194528 72 295 6.0 8.0 0.00 0.00 0.00 33 1017.0
20260509194330 73 284 5.0 0.0 0.00 0.00 0.00 33 1017.0
20260509194021 72 287 4.0 7.0 0.00 0.00 0.00 33 1017.0
20260509193845 73 237 4.0 0.0 0.00 0.00 0.00 33 1017.0
20260509193508 72 274 3.0 9.0 0.00 0.00 0.00 33 1017.0
20260509193340 73 211 8.0 0.0 0.00 0.00 0.00 33 1017.0
20260509193102 73 298 8.0 9.0 0.00 0.00 0.00 33 1017.0
20260509192831 73 248 4.0 0.0 0.00 0.00 0.00 33 1017.0
20260509192550 73 259 4.0 6.0 0.00 0.00 0.00 33 1017.0
20260509192328 73 279 6.0 0.0 0.00 0.00 0.00 33 1017.0
20260509192044 73 212 5.0 6.0 0.00 0.00 0.00 33 1017.0
20260509191845 73 267 7.0 0.0 0.00 0.00 0.00 33 1017.0
20260509191552 73 310 4.0 6.0 0.00 0.00 0.00 33 1017.0
20260509191400 73 262 6.0 0.0 0.00 0.00 0.00 33 1017.0
20260509191009 73 216 3.0 6.0 0.00 0.00 0.00 33 1017.0
20260509190835 74 278 5.0 0.0 0.00 0.00 0.00 33 1017.0
20260509190541 73 271 5.0 6.0 0.00 0.00 0.00 33 1017.0
20260509190331 74 228 4.0 0.0 0.00 0.00 0.00 33 1017.0
20260509190033 73 241 3.0 6.0 0.00 0.00 0.00 33 1017.0
20260509185829 74 219 2.0 0.0 0.00 0.00 0.00 33 1017.0
20260509185523 73 226 4.0 6.0 0.00 0.00 0.00 33 1017.0
20260509185325 74 219 7.0 0.0 0.00 0.00 0.00 33 1017.0
20260509185020 73 294 5.0 6.0 0.00 0.00 0.00 33 1017.0
20260509184825 74 285 2.0 0.0 0.00 0.00 0.00 33 1017.0
20260509184528 73 297 3.0 6.0 0.00 0.00 0.00 33 1017.0
20260509184338 73 309 4.0 0.0 0.00 0.00 0.00 33 1017.0
20260509184100 73 290 4.0 6.0 0.00 0.00 0.00 33 1017.0
20260509184008 73 287 3.0 6.0 0.00 0.00 0.00 33 1017.0
20260509183855 73 206 3.0 0.0 0.00 0.00 0.00 33 1017.0
20260509183534 73 205 4.0 6.0 0.00 0.00 0.00 33 1017.0
20260509183327 73 184 2.0 0.0 0.00 0.00 0.00 33 1017.0
20260509183033 73 235 3.0 6.0 0.00 0.00 0.00 33 1017.0
20260509182825 73 268 4.0 0.0 0.00 0.00 0.00 33 1017.0
20260509182519 73 209 4.0 6.0 0.00 0.00 0.00 33 1017.0
20260509182339 73 252 4.0 0.0 0.00 0.00 0.00 33 1017.0
20260509182050 73 282 4.0 10.0 0.00 0.00 0.00 33 1017.0
20260509181837 73 273 4.0 0.0 0.00 0.00 0.00 33 1017.0
20260509181543 73 245 3.0 10.0 0.00 0.00 0.00 33 1017.0
20260509181334 73 289 5.0 0.0 0.00 0.00 0.00 33 1017.0
20260509181041 73 297 4.0 6.0 0.00 0.00 0.00 33 1017.0
20260509180832 73 233 1.0 0.0 0.00 0.00 0.00 33 1017.0
20260509180536 72 275 3.0 6.0 0.00 0.00 0.00 33 1017.0
20260509180328 73 236 2.0 0.0 0.00 0.00 0.00 33 1017.0
20260509180029 72 251 5.0 6.0 0.00 0.00 0.00 33 1017.0
20260509175845 73 299 3.0 0.0 0.00 0.00 0.00 33 1017.0
20260509175521 72 303 1.0 4.0 0.00 0.00 0.00 33 1017.0
20260509175340 72 303 3.0 0.0 0.00 0.00 0.00 33 1017.0
20260509175021 71 255 3.0 4.0 0.00 0.00 0.00 33 1017.0
20260509174836 72 245 4.0 0.0 0.00 0.00 0.00 33 1017.0
20260509174559 71 342 1.0 4.0 0.00 0.00 0.00 33 1017.0
20260509174332 71 351 4.0 0.0 0.00 0.00 0.00 33 1017.0
20260509174041 71 304 3.0 7.0 0.00 0.00 0.00 33 1017.0
20260509173831 71 284 5.0 0.0 0.00 0.00 0.00 33 1017.0
20260509173536 70 285 3.0 7.0 0.00 0.00 0.00 33 1017.0
20260509173348 70 288 3.0 0.0 0.00 0.00 0.00 33 1017.0
20260509173012 70 296 4.0 6.0 0.00 0.00 0.00 33 1017.0
20260509172825 70 219 2.0 0.0 0.00 0.00 0.00 33 1017.0
20260509172506 69 220 1.0 6.0 0.00 0.00 0.00 33 1017.0
20260509172341 69 220 2.0 0.0 0.00 0.00 0.00 33 1017.0
20260509172057 68 258 3.0 6.0 0.00 0.00 0.00 33 1017.0
20260509171836 68 297 2.0 0.0 0.00 0.00 0.00 33 1017.0
20260509171549 68 297 2.0 6.0 0.00 0.00 0.00 33 1017.0
20260509171335 68 315 5.0 0.0 0.00 0.00 0.00 33 1017.0
20260509171046 68 284 4.0 6.0 0.00 0.00 0.00 33 1017.0
20260509170831 68 266 3.0 0.0 0.00 0.00 0.00 33 1017.0
20260509170537 68 218 2.0 6.0 0.00 0.00 0.00 33 1017.0
20260509170328 68 285 4.0 0.0 0.00 0.00 0.00 33 1017.0
20260509170035 67 284 3.0 6.0 0.00 0.00 0.00 33 1017.0
20260509165826 67 291 4.0 0.0 0.00 0.00 0.00 33 1017.0
20260509165505 66 270 1.0 2.0 0.00 0.00 0.00 33 1017.0
20260509165401 66 270 0.0 0.0 0.00 0.00 0.00 33 1017.0
20260509165038 65 270 1.0 2.0 0.00 0.00 0.00 33 1017.0
20260509164837 66 201 0.0 0.0 0.00 0.00 0.00 33 1017.0
20260509164527 65 201 2.0 2.0 0.00 0.00 0.00 33 1017.0
20260509164330 65 238 3.0 0.0 0.00 0.00 0.00 33 1017.0
20260509164019 64 273 1.0 3.0 0.00 0.00 0.00 33 1017.0
20260509163827 64 304 0.0 0.0 0.00 0.00 0.00 33 1017.0
20260509163515 64 303 1.0 3.0 0.00 0.00 0.00 33 1017.0
20260509163342 64 305 3.0 0.0 0.00 0.00 0.00 33 1017.0
20260509163011 63 301 1.0 4.0 0.00 0.00 0.00 33 1017.0
20260509162840 63 301 1.0 0.0 0.00 0.00 0.00 33 1017.0
20260509162558 63 301 3.0 4.0 0.00 0.00 0.00 33 1017.0
20260509162333 63 301 4.0 0.0 0.00 0.00 0.00 33 1017.0
20260509162052 62 301 0.0 4.0 0.00 0.00 0.00 33 1017.0
20260509161829 63 301 1.0 0.0 0.00 0.00 0.00 33 1017.0
20260509161543 62 298 0.0 4.0 0.00 0.00 0.00 33 1017.0
20260509161326 63 298 3.0 0.0 0.00 0.00 0.00 33 1017.0
20260509161040 62 298 2.0 4.0 0.00 0.00 0.00 33 1017.0
20260509160844 63 291 5.0 0.0 0.00 0.00 0.00 33 1017.0
20260509160514 62 291 2.0 4.0 0.00 0.00 0.00 33 1017.0
20260509160339 63 308 2.0 0.0 0.00 0.00 0.00 33 1017.0
20260509160008 62 310 2.0 3.0 0.00 0.00 0.00 33 1017.0
20260509155836 62 335 2.0 0.0 0.00 0.00 0.00 33 1017.0
20260509155559 62 317 0.0 1.0 0.00 0.00 0.00 33 1017.0
20260509155504 62 317 0.0 1.0 0.00 0.00 0.00 33 1017.0
20260509155353 62 319 3.0 0.0 0.00 0.00 0.00 33 1017.0
20260509155032 61 323 0.0 1.0 0.00 0.00 0.00 33 1017.0
20260509154850 62 323 0.0 0.0 0.00 0.00 0.00 33 1017.0
20260509154504 61 323 1.0 2.0 0.00 0.00 0.00 33 1017.0
20260509154325 62 323 0.0 0.0 0.00 0.00 0.00 33 1017.0
20260509154055 61 327 2.0 2.0 0.00 0.00 0.00 33 1017.0
20260509153840 61 225 1.0 0.0 0.00 0.00 0.00 33 1017.0
20260509153549 61 198 0.0 2.0 0.00 0.00 0.00 33 1017.0
20260509153336 61 198 2.0 0.0 0.00 0.00 0.00 33 1017.0
20260509153053 60 198 2.0 2.0 0.00 0.00 0.00 33 1017.0
20260509152829 61 152 4.0 0.0 0.00 0.00 0.00 33 1017.0
20260509152539 60 144 1.0 1.0 0.00 0.00 0.00 33 1017.0
20260509152329 61 117 1.0 0.0 0.00 0.00 0.00 33 1017.0
20260509152023 60 114 0.0 1.0 0.00 0.00 0.00 33 1017.0
20260509151859 60 114 0.0 0.0 0.00 0.00 0.00 33 1017.0
20260509151553 60 114 0.0 1.0 0.00 0.00 0.00 33 1017.0
20260509151350 60 114 3.0 0.0 0.00 0.00 0.00 33 1017.0
20260509151019 60 118 0.0 0.0 0.00 0.00 0.00 33 1017.0
20260509150900 60 118 0.0 0.0 0.00 0.00 0.00 33 1017.0
20260509150541 59 118 0.0 0.0 0.00 0.00 0.00 33 1017.0
20260509150330 60 118 0.0 0.0 0.00 0.00 0.00 33 1017.0
20260509150036 59 118 0.0 0.0 0.00 0.00 0.00 33 1017.0
20260509145828 60 118 0.0 0.0 0.00 0.00 0.00 33 1017.0
20260509145528 59 118 0.0 0.0 0.00 0.00 0.00 33 1017.0
20260509145346 59 118 1.0 0.0 0.00 0.00 0.00 33 1017.0
20260509145019 59 118 0.0 1.0 0.00 0.00 0.00 33 1017.0
20260509144841 59 118 1.0 0.0 0.00 0.00 0.00 33 1017.0
20260509144512 59 124 0.0 1.0 0.00 0.00 0.00 33 1017.0
20260509144334 59 124 0.0 0.0 0.00 0.00 0.00 33 1017.0
20260509144102 59 133 0.0 1.0 0.00 0.00 0.00 33 1017.0
20260509144003 58 133 1.0 1.0 0.00 0.00 0.00 33 1017.0
20260509143849 59 133 0.0 0.0 0.00 0.00 0.00 33 1017.0
20260509143532 58 133 0.0 1.0 0.00 0.00 0.00 33 1017.0
20260509143343 59 133 0.0 0.0 0.00 0.00 0.00 33 1017.0
20260509143026 58 133 0.0 1.0 0.00 0.00 0.00 33 1017.0
20260509142839 59 133 0.0 0.0 0.00 0.00 0.00 33 1017.0
20260509142520 58 133 0.0 0.0 0.00 0.00 0.00 33 1017.0
20260509142330 59 135 0.0 0.0 0.00 0.00 0.00 33 1017.0
20260509142042 58 136 0.0 0.0 0.00 0.00 0.00 33 1017.0
20260509090519 59 223 0.0 0.0 0.00 0.00 0.00 33 1017.0
20260509090356 59 223 0.0 0.0 0.00 0.00 0.00 33 1017.0
20260509090058 59 223 0.0 0.0 0.00 0.00 0.00 33 1017.0